Location: Audinghen
(50.8518°N, 1.6129°E)
Time: 23:55:26
(UTC+00:00)

USA 215 - Pass Details

Date: 07 August 2020
Orbit: 1102 x 1106 km, 123.0° (Epoch: 08 August)

Event Time Altitude Azimuth Distance (km) Brightness Sun altitude
Rises 01:39:33 0° 58° (ENE) 3,929 7.1 -19.3°
Reaches altitude 10° 01:42:13 10° 65° (ENE) 2,967 6.2 -19.1°
Maximum altitude 01:48:21 41° 135° (SE) 1,541 3.9 -18.7°
Enters shadow 01:51:28 26° 186° (S) 2,011 4.1 -18.5°
